Content
SEND FEEDBACK

Daily
Averages
Monthly
Summary
Greece

MITILINI, GREECE


Home > Europe > Greece
Elevation: 16 feet     Latitude: 39 04N     Longitude: 026 36E

WEATHER
 
SELECT A DAY
Number of Records: 88,556;   Date Range: 7/9/96 - 7/27/14
 
SHARE

PRINT THIS DATA

[ ← Previous Day ]
WEATHER ALMANAC - NOVEMBER 12, 2013
[ Next Day → ]
[ °C ]   °F
Weather ElementAverageHighLow
Temperature62 °F71.6 °F (2:50 pm)55.4 °F (5:50 am)
Dewpoint52.5 °F59 °F (11:50 am)46 °F (8:00 pm)
Humidity70.8 %88 % (7:50 am)54 % (2:00 pm)
Barometer30.12 in30.14 in (8:00 am)30.06 in (1:50 am)
Wind Speed0.6 mph3.5 mph (9:20 am)
Weather ElementAverage
Visibility6.2 mi
Wind DirectionN (1 °)

Weather ElementTotal
Precipitation---
Heating Degree Days1.5 (Base 65)
Growing Degree Days13.5 (Base 50)
Averaged from 46 records on November 12, 2013
WEATHER CONDITIONS BREAKOUT
WIND DIRECTION BREAKOUT
WEATHER BY HOUR - NOVEMBER 12, 2013
[ °C ]   °F
Local TimeTemperatureDewpointHumidityBarometerVisibilityWind DirectionWind SpeedGust SpeedPrecipitationEventsConditions
1:50 AM57.2 °F50.0 °F77 %30.06 in6.2 miCalmMostly Cloudy
2:00 AM57.0 °F50.0 °F70 %30.09 in6.0 miCalmScattered Clouds
2:50 AM57.2 °F51.8 °F82 %30.09 in6.2 miCalmMostly Cloudy
3:50 AM57.2 °F51.8 °F82 %30.09 in6.2 miCalmMostly Cloudy
4:20 AM57.2 °F51.8 °F82 %30.09 in6.2 miCalmScattered Clouds
4:50 AM57.2 °F50.0 °F77 %30.09 in6.2 miCalmPartly Cloudy
5:20 AM57.2 °F50.0 °F77 %30.09 in6.2 miCalmPartly Cloudy
5:50 AM55.4 °F50.0 °F82 %30.12 in6.2 miCalmScattered Clouds
6:20 AM55.4 °F50.0 °F82 %30.12 in6.2 miCalmScattered Clouds
6:50 AM57.2 °F51.8 °F82 %30.12 in6.2 miCalmScattered Clouds
7:20 AM57.2 °F51.8 °F82 %30.12 in6.2 miCalmScattered Clouds
7:50 AM57.2 °F53.6 °F88 %30.12 in6.2 miCalmScattered Clouds
8:00 AM58.0 °F53.0 °F78 %30.14 in6.0 miCalmScattered Clouds
8:20 AM59.0 °F53.6 °F82 %30.12 in6.2 miCalmScattered Clouds
8:50 AM62.6 °F57.2 °F82 %30.12 in6.2 miCalmPartly Cloudy
9:20 AM64.4 °F57.2 °F77 %30.12 in6.2 miVariable3.5 mphPartly Cloudy
9:50 AM66.2 °F57.2 °F73 %30.12 inVariable3.5 mphClear
10:20 AM68.0 °F57.2 °F68 %30.12 inVariable3.5 mphClear
10:50 AM68.0 °F57.2 °F68 %30.12 inNNE (20°)3.5 mphClear
11:20 AM68.0 °F57.2 °F68 %30.12 inNNE (20°)3.5 mphClear
11:50 AM69.8 °F59.0 °F68 %30.12 inCalmClear
12:20 PM69.8 °F59.0 °F68 %30.12 inCalmClear
12:50 PM69.8 °F57.2 °F64 %30.12 inCalmClear
1:20 PM69.8 °F57.2 °F64 %30.12 inCalmClear
1:50 PM69.8 °F57.2 °F64 %30.12 inCalmClear
2:00 PM71.0 °F58.0 °F54 %30.12 in6.0 miCalm
2:20 PM69.8 °F57.2 °F64 %30.12 inCalmClear
2:50 PM71.6 °F59.0 °F64 %30.12 inCalmClear
3:20 PM71.6 °F57.2 °F60 %30.12 inCalmClear
3:50 PM69.8 °F55.4 °F60 %30.12 inCalmClear
4:20 PM68.0 °F55.4 °F64 %30.12 inCalmClear
4:50 PM66.2 °F53.6 °F64 %30.12 inCalmClear
5:20 PM64.4 °F51.8 °F64 %30.12 inCalmClear
5:50 PM62.6 °F50.0 °F63 %30.12 inCalmClear
6:20 PM60.8 °F48.2 °F63 %30.12 inCalmClear
6:50 PM59.0 °F46.4 °F63 %30.12 inCalmClear
7:20 PM59.0 °F46.4 °F63 %30.12 inVariable2.3 mphClear
7:50 PM57.2 °F46.4 °F67 %30.12 inCalmClear
8:00 PM58.0 °F46.0 °F56 %30.13 in6.0 miCalm
8:20 PM57.2 °F46.4 °F67 %30.12 inVariable2.3 mphClear
8:50 PM57.2 °F46.4 °F67 %30.12 inVariable2.3 mphClear
9:20 PM57.2 °F46.4 °F67 %30.12 inVariable2.3 mphClear
9:50 PM57.2 °F48.2 °F72 %30.12 inCalmClear
10:20 PM57.2 °F48.2 °F72 %30.12 inCalmClear
10:50 PM55.4 °F48.2 °F77 %30.12 inCalmClear
11:50 PM55.4 °F48.2 °F77 %30.12 inCalmClear
Hourly data recorded from LGMT, located miles away from Mitilini, Greece







STORIES FROM OUR PARTNERS